Regional Weather Roundup
Issued by NWS

Home | Current Version | Previous Version | Text Only | Print | Product List | Glossary Off
Versions: 1 2 3 4 5 6 7 8 9 10 11 12 13 14 15 16 17 18 19 20 21 22 23 24 25 26 27 28 29 30 31 32 33 34 35 36 37 38 39 40 41 42 43 44 45 46 47 48 49 50

000
ASUS43 KMKX 162000
RWRWI

WISCONSIN REGIONAL WEATHER ROUNDUP
NATIONAL WEATHER SERVICE MILWAUKEE/SULLIVAN WI
300 PM CDT WED APR 16 2014

NOTE: "FAIR" INDICATES FEW OR NO CLOUDS BELOW 12,000 FEET WITH NO
SIGNIFICANT WEATHER AND/OR OBSTRUCTIONS TO VISIBILITY.

WIZ001-002-006>008-014>016-023>028-162100-
NORTHWEST WISCONSIN

CITY           SKY/WX    TMP DP  RH WIND       PRES   REMARKS
SUPERIOR ARPT  LGT SNOW  27  26  94 NE16G25   30.13F VSB 3/4 WCI  15
ASHLAND        SNOW      27  25  92 NE20      30.14F VSB 1/4 WCI  13
HAYWARD        SNOW      29  25  85 E9        30.05F VSB 1/2 WCI  20
SIREN          SNOW      29  28  96 E8        30.01F VSB 1/2 WCI  22
RICE LAKE      CLOUDY    33  27  77 E14G20    30.00F WCI  23
LADYSMITH      CLOUDY    34  27  76 E13       30.04F WCI  25
EAU CLAIRE     CLOUDY    47  27  45 E21G28    29.93F
MENOMONIE      CLOUDY    40  30  68 NE12      29.93F WCI  33
NEW RICHMOND   CLOUDY    34  27  76 E7        29.94S WCI  28
OSCEOLA        CLOUDY    33  28  80 E15G22    29.97S WCI  23
$$

WIZ003>005-009-010-017-018-162100-
NORTH CENTRAL WISCONSIN

CITY           SKY/WX    TMP DP  RH WIND       PRES   REMARKS
WOODRUFF       LGT SNOW  32  26  80 SE12G20   30.10S VSB 3/4 WCI  23
RHINELANDER    CLOUDY    29  24  82 E21       30.10F WCI  16
EAGLE RIVER    LGT SNOW  28  23  79 SE16G23   30.11F WCI  17
LAND O LAKES   LGT SNOW  28  24  88 E10       30.13F VSB 3/4 WCI  18
PHILLIPS       CLOUDY    30  25  80 SE15G21   30.07R WCI  19
TOMAHAWK       CLOUDY    31  26  80 E13G20    30.09F WCI  21
MEDFORD        CLOUDY    33  26  75 SE16G24   30.02F WCI  23
MERRILL        CLOUDY    33  28  81 CALM      30.09F
$$

WIZ029-030-035-036-043>047-162100-
CENTRAL WISCONSIN

CITY           SKY/WX    TMP DP  RH WIND       PRES   REMARKS
WAUSAU         CLOUDY    35  28  75 E17G28    30.06F WCI  25
MOSINEE        SUNNY     37  27  65 E15G23    30.07F WCI  28
MARSHFIELD     CLOUDY    41  28  60 SE15      30.01F
STEVENS POINT  CLOUDY    38  26  61 SE13      30.08F WCI  30
WAUPACA        CLOUDY    45  28  53 SE16G22   30.13S
WAUTOMA        NOT AVBL
WISC RAPIDS    CLOUDY    43  27  53 SE13G22   30.05F
CAMP DOUGLAS   NOT AVBL
$$

WIZ011>013-019>022-031-037>040-048>050-162100-
NORTHEAST WISCONSIN

CITY           SKY/WX    TMP DP  RH WIND       PRES   REMARKS
ANTIGO         CLOUDY    30  28  90 SE20G26   30.12S WCI  17
STURGEON BAY   CLOUDY    36  25  64 SE14      30.26F WCI  27
GREEN BAY      CLOUDY    38  28  67 SE23G33   30.20F WCI  27
MANITOWOC      NOT AVBL
APPLETON       NOT AVBL
CLINTONVILLE   CLOUDY    39  30  70 SE12G24   30.15F WCI  32
OSHKOSH        CLOUDY    44  31  60 SE22G28   30.13F
$$

WIZ032>034-041-042-053>061-162100-
SOUTHWEST WISCONSIN

CITY           SKY/WX    TMP DP  RH WIND       PRES   REMARKS
LA CROSSE      CLOUDY    54  27  35 S23G33    29.91F
SPARTA         CLOUDY    51  26  38 SE18G25   29.97F
VIROQUA        FAIR      48  30  49 S25       29.95F
BOSCOBEL         N/A     56  26  31 S15G24    29.99F
PRAIRIE DU CHI PTSUNNY   55  25  32 S20G30    29.95F
PLATTEVILLE    FAIR      53  31  42 SE26G36   30.02F
$$

WIZ056-057-062-063-064-067-068-162100-
SOUTH CENTRAL WISCONSIN

CITY           SKY/WX    TMP DP  RH WIND       PRES   REMARKS
BARABOO/DELLS  PTSUNNY   49  29  45 S20G32    30.04F
LONE ROCK      NOT AVBL
WATERTOWN      PTSUNNY   48  29  47 SE21G28   30.12F
MADISON        CLOUDY    51  29  42 S28G36    30.08F
MIDDLETON      FAIR      52  27  38 S23G36    30.08S
MONROE         MOSUNNY   52  31  44 S23G33    30.07F
JANESVILLE     SUNNY     52  25  35 S29G40    30.12F
$$

WIZ051-052-058>065-066-070>072-162100-
SOUTHEAST WISCONSIN

CITY           SKY/WX    TMP DP  RH WIND       PRES   REMARKS
MILWAUKEE      PTSUNNY   44  27  51 SE23G35   30.20F
WAUKESHA       MOSUNNY   45  28  53 SE20G28   30.17F
MILWAUKEE/TIMM SUNNY     45  27  49 SE16G25   30.20F
RACINE         SUNNY     43  27  53 SE21G30   30.22F
BURLINGTON     SUNNY     49  26  40 S16G25    30.17S
KENOSHA        SUNNY     46  28  49 SE25G36   30.19F
FOND DU LAC    CLOUDY    46  32  58 SE18G28   30.13F
SHEBOYGAN      PTSUNNY   38  26  62 SE18G36   30.21F WCI  28
WEST BEND      CLOUDY    41  27  56 SE14G24   30.17F
JUNEAU         CLOUDY    46  23  39 SE20G30   30.13F
$$

LSZ147-162-162100-
LAKE SUPERIOR

STATION/POSITION TIME  TEMP    WIND        PRES    WAVE
                       AIR SEA DIR/SP/G            HT/PER
                 (UTC) (F)     (DEG/KT/KT) (MB)    (FT/S)
DEVILS ISLAND    1900   27      70/ 15/ 16 1024.4F
PORT WING        1940   28      40/ 15/ 17 1021.0F
SAXON HARBOR     1940           50/ 12/ 14 1021.0F
$$

LMZ867-665-643>646-162100-
LAKE MICHIGAN

STATION/POSITION TIME  TEMP    WIND        PRES    WAVE
                       AIR SEA DIR/SP/G            HT/PER
                 (UTC) (F)     (DEG/KT/KT) (MB)    (FT/S)
NORTHPORT PIER   1900   30     150/ 11/ 14 1026.8S
SISTER BAY       1909   33     130/ 12/ 16   N/A
SHEBOYGAN LAKESH 1900   36     150/ 27/ 30 1024.6F
PORT WASHINGTON  1940   38     140/ 18/ 23 1023.4F
MILWAUKEE LAKESH 1900   37     140/ 20/ 23   N/A
KENOSHA   LAKESH 1900   39     140/ 21/ 26   N/A
$$

TC  - TEMPERATURE IN CELSIUS
VSB - VISIBILITY IN STATUTE MILES
WCI - WIND CHILL INDEX
HX  - HEAT INDEX




USA.gov is the U.S. government's official web portal to all federal, state and local government web resources and services.